KF5PJP Weather Reports


time (UTC)temp
C
wind
direction
speed
KPH
gust
KPH
rain 1hr
cm
rain 24hr
cm
rain mn
cm
humidity
%
barometer
mb
20260502123419 12 111 0.0 0.0 0.00 0.43 0.00 86 1019.1
20260502122836 12 139 0.0 0.0 0.00 0.43 0.00 86 1019.0
20260502122406 12 138 0.0 0.0 0.00 0.43 0.00 87 1019.0
20260502121923 11 138 0.0 0.0 0.00 0.43 0.00 87 1019.0
20260502121352 11 138 0.0 0.0 0.00 0.43 0.00 87 1018.9
20260502120358 11 138 0.0 0.0 0.00 0.51 0.00 88 1018.8
20260502115859 11 138 0.0 0.0 0.00 0.51 0.00 88 1018.6
20260502114851 11 138 0.0 0.0 0.00 0.51 0.00 88 1018.5
20260502114426 11 138 0.0 0.0 0.00 0.51 0.00 88 1018.5
20260502113955 11 138 0.0 0.0 0.00 0.51 0.00 87 1018.4
20260502113353 11 138 0.0 1.6 0.00 0.51 0.00 87 1018.3
20260502112401 11 138 0.0 1.6 0.00 0.51 0.00 85 1018.2
20260502111931 11 138 0.0 1.6 0.00 0.51 0.00 85 1018.0
20260502111339 11 138 0.0 1.6 0.00 0.51 0.00 85 1017.9
20260502110930 11 138 0.0 1.6 0.00 0.58 0.00 84 1017.9
20260502110450 11 138 0.0 1.6 0.00 0.58 0.00 84 1017.9
20260502105840 11 142 0.0 3.2 0.00 0.58 0.00 84 1018.0
20260502104848 11 134 0.0 3.2 0.00 0.58 0.00 85 1017.9
20260502103856 11 135 0.0 3.2 0.00 0.58 0.00 85 1017.7
20260502103431 11 136 0.0 1.6 0.00 0.58 0.00 86 1017.7
20260502102839 11 138 0.0 1.6 0.00 0.58 0.00 86 1017.7
20260502101920 11 137 0.0 1.6 0.00 0.58 0.00 87 1017.7
20260502100344 11 137 0.0 1.6 0.00 0.58 0.00 86 1017.6
20260502090859 11 141 0.0 0.0 0.00 0.58 0.00 89 1017.1
20260502071413 12 139 0.0 0.0 0.00 0.58 0.00 89 1017.2
20260502070904 12 139 0.0 0.0 0.00 0.58 0.00 89 1017.3
20260502070432 12 140 0.0 3.2 0.00 0.58 0.00 89 1017.4
20260502065838 12 135 0.0 3.2 0.00 0.58 0.00 90 1017.4
20260502065346 12 135 0.0 1.6 0.00 0.58 0.00 90 1017.5
20260502064843 12 134 0.0 3.2 0.00 0.58 0.00 90 1017.4
20260502064348 12 141 1.6 4.8 0.00 0.58 0.00 90 1017.3
20260502063905 12 141 0.0 4.8 0.00 0.58 0.00 91 1017.3
20260502063414 12 137 0.0 0.0 0.00 0.58 0.00 91 1017.4
20260502062912 12 138 0.0 0.0 0.00 0.58 0.00 90 1017.3
20260502062411 12 138 0.0 0.0 0.00 0.58 0.00 90 1017.4
20260502061837 12 137 0.0 0.0 0.00 0.58 0.00 91 1017.4
20260502060903 12 151 0.0 0.0 0.00 0.58 0.00 91 1017.4
20260502060359 12 138 0.0 0.0 0.00 0.58 0.00 91 1017.4
20260502055838 12 146 0.0 0.0 0.00 0.58 0.00 92 1017.3
20260502055340 12 146 0.0 0.0 0.00 0.58 0.00 92 1017.3
20260502054837 12 146 0.0 0.0 0.00 0.58 0.00 92 1017.3
20260502054336 12 146 0.0 0.0 0.00 0.58 0.00 92 1017.3
20260502053856 12 146 0.0 0.0 0.00 0.58 0.00 92 1017.3
20260502053350 12 146 0.0 0.0 0.00 0.58 0.00 92 1017.3
20260502052851 12 146 0.0 0.0 0.00 0.58 0.00 92 1017.2
20260502052352 12 146 0.0 0.0 0.00 0.58 0.00 92 1017.1
20260502051834 12 146 0.0 0.0 0.00 0.58 0.00 92 1017.1
20260502051334 12 146 0.0 0.0 0.00 0.58 0.00 92 1017.1
20260502050903 12 146 0.0 0.0 0.00 0.58 0.58 92 1017.1
20260502050402 12 146 0.0 0.0 0.00 0.58 0.58 92 1017.1
20260502045343 12 146 0.0 0.0 0.00 0.58 0.58 92 1017.1
20260502044910 12 146 0.0 0.0 0.00 0.58 0.58 92 1017.2
20260502043919 12 186 0.0 0.0 0.00 0.58 0.58 92 1017.3
20260502043424 12 232 0.0 0.0 0.00 0.58 0.58 92 1017.2
20260502042837 12 254 0.0 0.0 0.00 0.58 0.58 92 1017.1
20260502042405 12 254 0.0 0.0 0.00 0.58 0.58 91 1017.0
20260502041344 12 254 0.0 0.0 0.00 0.58 0.58 91 1016.9
20260502040914 12 254 0.0 0.0 0.00 0.58 0.58 91 1017.0
20260502035910 12 254 0.0 0.0 0.00 0.58 0.58 91 1017.0
20260502034910 12 254 0.0 0.0 0.00 0.58 0.58 90 1016.9
20260502033902 12 254 0.0 0.0 0.00 0.58 0.58 90 1016.8
20260502033419 12 254 0.0 0.0 0.00 0.58 0.58 90 1016.8
20260502032845 12 254 0.0 0.0 0.00 0.58 0.58 90 1017.0
20260502031855 12 254 0.0 0.0 0.00 0.58 0.58 90 1016.9
20260502031422 12 254 0.0 0.0 0.00 0.58 0.58 90 1017.0
20260502030357 12 254 0.0 0.0 0.00 0.58 0.58 89 1016.8
20260502025911 12 254 0.0 0.0 0.00 0.58 0.58 89 1016.6
20260502024900 13 254 0.0 0.0 0.00 0.58 0.58 88 1016.2
20260502024407 13 254 0.0 0.0 0.00 0.58 0.58 88 1016.2
20260502023952 13 254 0.0 0.0 0.00 0.58 0.58 87 1016.1
20260502023343 13 254 0.0 0.0 0.00 0.58 0.58 87 1016.2
20260502022911 13 254 0.0 0.0 0.00 0.58 0.58 87 1016.1
20260502022421 13 254 0.0 0.0 0.00 0.58 0.58 87 1016.1
20260502021339 13 254 0.0 0.0 0.00 0.58 0.58 88 1016.0
20260502020904 13 254 0.0 0.0 0.00 0.58 0.58 88 1016.1
20260502015853 13 254 0.0 0.0 0.00 0.58 0.58 89 1015.9
20260502015422 13 254 0.0 0.0 0.00 0.58 0.58 89 1015.8
20260502014354 13 255 0.0 0.0 0.00 0.58 0.58 89 1016.2
20260502013357 13 255 0.0 0.0 0.00 0.58 0.58 88 1016.5
20260502012929 13 255 0.0 0.0 0.00 0.58 0.58 88 1016.1
20260502012356 13 255 0.0 0.0 0.00 0.58 0.58 88 1015.8
20260502011359 13 254 0.0 0.0 0.00 0.58 0.58 87 1015.7
20260502010858 13 254 0.0 0.0 0.00 0.58 0.58 87 1015.8
20260502005842 13 255 0.0 0.0 0.00 0.58 0.58 87 1015.8
20260502005410 13 255 0.0 0.0 0.00 0.58 0.58 87 1015.3
20260502004943 13 255 0.0 0.0 0.00 0.58 0.58 86 1015.3
20260502004354 13 254 0.0 0.0 0.00 0.58 0.58 86 1014.9
20260502003347 13 262 0.0 0.0 0.00 0.58 0.58 85 1015.2
20260502002355 13 245 0.0 3.2 0.00 0.58 0.58 85 1014.9
20260502001356 13 259 0.0 3.2 0.00 0.58 0.58 84 1015.0
20260502000909 13 275 1.6 3.2 0.00 0.58 0.58 84 1015.0
20260501235910 13 253 1.6 3.2 0.00 0.58 0.58 83 1014.9
20260501234851 13 249 0.0 1.6 0.00 0.58 0.58 83 1015.0
20260501233856 13 265 1.6 4.8 0.00 0.58 0.58 81 1014.9
20260501233420 13 275 1.6 6.4 0.00 0.58 0.58 81 1014.9
20260501232842 13 267 3.2 6.4 0.00 0.58 0.58 80 1014.6
20260501232413 13 263 1.6 4.8 0.00 0.58 0.58 81 1014.5
20260501231335 14 264 0.0 3.2 0.00 0.58 0.58 79 1014.9
20260501230400 14 269 1.6 8.0 0.00 0.58 0.58 79 1014.1
20260501225407 14 285 1.6 6.4 0.00 0.58 0.58 78 1014.1
20260501224417 14 241 1.6 3.2 0.00 0.58 0.58 79 1014.3
20260501223851 14 258 1.6 6.4 0.00 0.58 0.58 78 1014.3
20260501222900 14 229 1.6 4.8 0.00 0.58 0.58 76 1014.2
20260501221849 15 244 3.2 4.8 0.00 0.58 0.58 77 1013.7
20260501220925 15 303 1.6 6.4 0.00 0.58 0.58 78 1013.9
20260501220335 14 255 3.2 6.4 0.00 0.58 0.58 77 1013.6
20260501215909 14 275 1.6 3.2 0.00 0.58 0.58 78 1013.8
20260501215337 14 246 1.6 6.4 0.00 0.58 0.58 78 1013.8
20260501214913 14 198 1.6 6.4 0.00 0.58 0.58 78 1012.8
20260501214330 14 209 3.2 11.3 0.00 0.58 0.58 78 1012.8
20260501213900 14 251 4.8 11.3 0.00 0.58 0.58 78 1012.5
20260501212900 14 242 4.8 11.3 0.00 0.58 0.58 78 1012.4
20260501211903 14 262 4.8 9.7 0.00 0.58 0.58 79 1012.7
20260501210851 14 258 4.8 9.7 0.00 0.61 0.58 79 1012.8
20260501210428 14 259 4.8 9.7 0.00 0.61 0.58 79 1013.0
20260501205832 14 261 3.2 9.7 0.00 0.61 0.58 79 1013.3
20260501205415 14 275 4.8 9.7 0.00 0.61 0.58 79 1013.7
20260501204420 14 261 3.2 6.4 0.00 0.61 0.58 78 1014.4
20260501203833 14 254 1.6 4.8 0.00 0.61 0.58 79 1014.2
20260501203423 14 68 3.2 12.9 0.00 0.61 0.58 80 1014.2
20260501202841 14 94 1.6 11.3 0.00 0.61 0.58 79 1014.6
20260501202415 14 51 3.2 9.7 0.00 0.61 0.58 78 1014.8
20260501201835 14 271 3.2 9.7 0.00 0.61 0.58 77 1014.9
20260501200853 14 244 3.2 8.0 0.00 0.66 0.58 78 1014.5
20260501195914 14 228 1.6 11.3 0.00 0.66 0.58 79 1013.6
20260501195340 14 242 8.0 11.3 0.00 0.66 0.58 76 1013.1
20260501194429 14 290 4.8 16.1 0.00 0.66 0.58 80 1012.6
20260501193838 14 263 9.7 16.1 0.00 0.66 0.58 79 1012.4
20260501192850 13 262 6.4 14.5 0.00 0.66 0.58 82 1012.5
20260501191847 14 268 6.4 14.5 0.00 0.66 0.58 82 1012.4
20260501191432 13 242 6.4 14.5 0.00 0.66 0.58 85 1012.4
20260501190834 13 232 4.8 9.7 0.00 0.71 0.58 88 1012.7
20260501190416 13 274 4.8 9.7 0.00 0.71 0.58 89 1012.8
20260501185836 12 265 4.8 9.7 0.00 0.71 0.58 91 1013.1
20260501185415 12 248 4.8 8.0 0.00 0.71 0.58 91 1013.2
20260501184401 12 62 4.8 17.7 0.03 0.71 0.58 95 1013.2
20260501183357 12 85 14.5 20.9 0.03 0.71 0.58 95 1013.5
20260501182932 12 106 4.8 20.9 0.03 0.71 0.58 95 1013.8
20260501182357 12 63 4.8 24.1 0.03 0.71 0.58 95 1014.2
20260501181407 12 84 3.2 16.1 0.03 0.71 0.58 95 1014.3
20260501180830 12 254 3.2 8.0 0.03 1.30 0.58 94 1014.5
20260501180419 12 263 4.8 8.0 0.03 1.30 0.58 94 1014.7
20260501175953 12 257 3.2 6.4 0.03 1.30 0.58 93 1014.8
20260501175357 12 244 3.2 6.4 0.03 1.30 0.58 94 1015.0
20260501174912 12 272 3.2 6.4 0.00 1.27 0.56 94 1015.1
20260501173902 12 263 3.2 4.8 0.00 1.27 0.56 94 1015.2
20260501172840 12 246 4.8 9.7 0.00 1.27 0.56 94 1015.0
20260501172428 12 234 4.8 8.0 0.00 1.27 0.56 94 1014.9
20260501171845 12 259 3.2 6.4 0.00 1.27 0.56 94 1015.2
20260501170858 12 288 3.2 6.4 0.03 1.27 0.56 94 1015.7
20260501170451 12 260 3.2 6.4 0.03 1.27 0.56 94 1015.7
20260501165833 12 275 3.2 8.0 0.05 1.27 0.56 93 1015.8
20260501164907 12 284 3.2 8.0 0.08 1.27 0.56 94 1015.7
20260501163901 12 274 3.2 6.4 0.10 1.27 0.56 94 1015.8
20260501163418 12 257 3.2 6.4 0.10 1.27 0.56 94 1015.9
20260501162834 12 251 3.2 9.7 0.13 1.27 0.56 94 1015.9
20260501162416 12 279 3.2 9.7 0.13 1.27 0.56 94 1015.9
20260501161405 11 264 3.2 4.8 0.13 1.24 0.53 94 1016.0
20260501160348 11 272 3.2 6.4 0.13 1.24 0.53 94 1016.1
20260501155407 11 267 3.2 6.4 0.13 1.22 0.51 94 1016.4
20260501154409 11 245 3.2 6.4 0.10 1.19 0.48 94 1016.5
20260501153410 11 263 3.2 4.8 0.08 1.17 0.46 94 1016.7
20260501152831 11 215 1.6 3.2 0.05 1.14 0.43 94 1016.7
20260501152425 11 247 0.0 0.0 0.05 1.14 0.43 94 1016.4
20260501151344 11 255 0.0 0.0 0.03 1.12 0.41 94 1016.5
20260501150340 11 260 0.0 0.0 0.05 1.12 0.41 94 1016.7
20260501145909 11 252 0.0 3.2 0.03 1.09 0.38 94 1016.4
20260501145425 11 251 0.0 3.2 0.03 1.09 0.38 94 1016.3
20260501144406 11 259 0.0 3.2 0.05 1.09 0.38 94 1015.9
20260501143932 11 270 1.6 4.8 0.08 1.09 0.38 94 1015.7
20260501143346 11 248 1.6 4.8 0.08 1.09 0.38 94 1015.5
20260501142922 11 240 1.6 4.8 0.08 1.09 0.38 94 1015.2